Location: *
(2.5500°S, 65.9667°W)
Time: 12:23:21
(UTC+00:00)

N. Korean satellite - Visible Passes

Search period start: 26 January 2022 00:00
Search period end: 05 February 2022 00:00
Orbit: 447 x 491 km, 97.3° (Epoch: 25 January)

Date Brightness Start Highest point End Pass type
(mag) Time Alt. Az. Time Alt. Az. Time Alt. Az.
26 Jan 6.7 09:08:34 10° NNE 09:12:08 73° E 09:15:41 10° S visible
27 Jan 9.0 08:40:10 10° NE 08:43:00 22° ESE 08:45:48 10° SSE visible
28 Jan 7.5 09:43:42 10° NNW 09:46:43 26° W 09:49:43 10° SW visible
29 Jan 6.4 09:13:59 10° N 09:17:33 88° WNW 09:21:05 10° SSW visible
30 Jan 8.7 08:45:19 10° NE 08:48:22 27° ESE 08:51:23 10° SSE visible
31 Jan 7.8 09:49:16 10° NNW 09:52:02 21° W 09:54:46 10° SW visible
01 Feb 6.4 09:19:17 10° N 09:22:49 70° W 09:26:19 10° SSW visible
02 Feb 8.3 08:50:23 10° NE 08:53:34 32° E 08:56:45 10° SSE visible
03 Feb 10.0 08:23:23 10° E 08:24:21 11° ESE 08:25:18 10° ESE visible
03 Feb 8.0 09:54:47 10° NW 09:57:11 17° W 09:59:35 10° WSW visible
04 Feb 6.5 09:24:29 10° N 09:27:56 55° W 09:31:21 10° SSW visible
